SCP
0 0 0 0 0 0 0 0 0 0 0 0 0 0 0 0 0 0 0 0 0 0 0 0 0 0 0 0 0 0 0 0 0 0 0 0 0 0
0 0 0 0 0 0 0 0 0 0 0 0 0 0 0 0 0 0 0 0 0 0 0 0 0 0 0 0 0 0 0 0 0 0 0 0 0 0
0 0 0 0 0 0 0 0 0 0 0 0 0 0 0 0 0 0 0 0 0 0 0 0 0 0 0 0 0 0 0 0 0 0 0 0 0 0
0 0 0 0 0 0 0 0 0 0 0 0 0 0 0 0 0 0 0 0 0 0 0 0 0 0 0 0 0 0 0 0 0 0 0 0 0 0
0 0 0 0 0 0 0 0 0 0 0 0 0 0 0 0 0 0 0 0 0 0 0 0 0 0 0 0 0 0 0 0 0 0 0 0 0 0
0 0 0 0 0 0 0 0 0 0 0 0 0 0 0 0 0 0 0 0 0 0 0 0 0 0 0 0 0 0 0 0 0 0 0 0 0 0
0 0 0 0 0 0 0 0 0 0 0 0 0 0 0 0 0 0 0 0 0 0 0 0 0 0 0 0 0 0 0 0 0 0 0 0 0 0
0 0 0 0 0 0 0 0 0 0 0 0 0 0 0 0 0 0 0 0 0 0 0 0 0 0 0 0 0 0 0 0 0 0 0 0 0 0
0 0 0 0 0 0 0 0 0 0 0 0 0 0 0 0 0 0 0 0 0 0 0 0 0 0 0 0 0 0 0 0 0 0 0 0 0 0
0 0 0 0 0 0 0 0 0 0 0 0 0 0 0 0 0 0 0 0 0 0 0 0 0 0 0 0 0 0 0 0 0 0 0 0 0 0
0 0 0 0 0 0 0 0 0 0 0 0 0 0 0 0 0 0 0 0 0 0 0 0 0 0 0 0 0 0 0 0 0 0 0 0 0 0
0 0 0 0 0 0 0 0 0 0 0 0 0 0 0 0 0 0 0 0 0 0 0 0 0 0 0 0 0 0 0 0 0 0 0 0 0 0
0 0 0 0 0 0 0 0 0 0 0 0 0 0 0 0 0 0 0 0 0 0 0 0 0 0 0 0 0 0 0 0 0 0 0 0 0 0
0 0 0 0 0 0 0 0 0 0 0 0 0 0 0 0 0 0 0 0 0 0 0 0 0 0 0 0 0 0 0 0 0 0 0 0 0 0
0 0 0 0 0 0 0 0 0 0 0 0 0 0 0 0 0 0 0 0 0 0 0 0 0 0 0 0 0 0 0 0 0 0 0 0 0 0
0 0 0 0 0 0 0 0 0 0 0 0 0 0 0 0 0 0 0 0 0 0 0 0 0 0 0 0 0 0 0 0 0 0 0 0 0 0
0 0 0 0 0 0 0 0 0 0 0 0 0 0 0 0 0 0 0 0 0 0 0 0 0 0 0 0 0 0 0 0 0 0 0 0 0 0
0 0 0 0 0 0 0 0 0 0 0 0 0 0 0 0 0 0 0 0 0 0 0 0 0 0 0 0 0 0 0 0 0 0 0 0 0 0
0 0 0 0 0 0 0 0 0 0 0 0 0 0 0 0 0 0 0 0 0 0 0 0 0 0 0 0 0 0 0 0 0 0 0 0 0 0
0 0 0 0 0 0 0 0 0 0 0 0 0 0 0 0 0 0 0 0 0 0 0 0 0 0 0 0 0 0 0 0 0 0 0 0 0 0
0 0 0 0 0 0 0 0 0 0 0 0 0 0 0 0 0 0 0 0 0 0 0 0 0 0 0 0 0 0 0 0 0 0 0 0 0 0
0 0 0 0 0 0 0 0 0 0 0 0 0 0 0 0 0 0 0 0 0 0 0 0 0 0 0 0 0 0 0 0 0 0 0 0 0 0
0 0 0 0 0 0 0 0 0 0 0 0 0 0 0 0 0 0 0 0 0 0 0 0 0 0 0 0 0 0 0 0 0 0 0 0 0 0
Wind_Speed
5 5 5 4 4 4 4 5 5 5 5 5 4 4 4 4 5 7 7 10 9 8 8 8 8 7 7 6 6 6 6 6 6 6 6 6 6 6
3 4 4 4 4 4 4 4 5 5 4 3 3 3 4 4 5 5 5 10 9 9 8 8 8 7 7 7 6 5 5 5 6 6 6 5 5 5
4 5 5 5 4 3 3 4 4 4 4 2 2 3 5 5 5 5 5 5 6 9 8 8 8 7 7 7 7 6 5 5 5 5 6 5 5 5
4 4 5 4 5 4 4 4 4 5 5 4 3 3 4 5 6 6 4 4 5 8 8 8 8 8 7 7 6 6 6 6 5 5 5 5 5 5
4 4 4 4 5 4 4 4 4 4 4 4 3 2 2 4 5 6 6 4 5 7 8 8 8 8 8 7 7 6 6 6 5 5 5 4 4 5
3 3 4 4 4 4 4 5 4 5 5 4 4 4 3 4 5 5 5 4 4 4 5 6 8 8 8 7 7 7 7 6 6 5 5 5 5 4
2 2 1 2 2 2 2 3 4 5 5 5 5 5 4 5 5 5 5 5 4 3 4 4 4 4 5 6 7 7 7 7 6 6 6 6 6 6
1 1 1 2 2 3 2 2 3 4 5 5 4 6 6 6 5 6 6 6 4 4 4 3 3 4 3 3 6 8 8 8 7 7 7 7 7 7
2 1 0 0 2 2 3 4 4 4 5 5 6 6 6 6 7 8 7 6 4 5 5 3 3 3 3 5 9 8 8 8 8 8 8 8 8 7
2 2 1 1 2 1 1 2 2 2 3 4 4 4 4 5 7 6 6 6 6 4 3 3 3 3 3 4 8 8 8 8 8 8 8 8 7 7
4 4 3 3 4 3 1 1 1 2 3 3 3 4 5 6 7 6 7 7 5 3 2 3 4 3 3 3 6 8 7 7 7 8 8 7 6 6
4 4 6 6 5 5 1 2 2 2 3 5 5 6 6 8 8 6 6 6 5 4 4 4 5 4 3 3 3 5 5 6 7 6 6 6 4 4
3 3 5 7 6 6 3 3 3 2 3 4 4 4 4 4 4 4 4 4 5 3 6 5 5 4 4 4 3 3 4 4 5 6 6 6 3 2
3 3 4 6 6 6 4 5 3 2 3 4 4 4 4 3 4 4 4 3 2 4 7 6 4 4 4 5 4 4 4 3 3 4 5 8 5 2
3 5 4 3 2 3 5 3 1 2 3 3 4 3 3 4 4 4 5 6 6 5 5 5 4 5 4 4 5 5 5 4 4 4 4 5 5 5
1 2 2 2 1 2 2 1 2 2 2 3 3 3 3 4 4 4 5 5 5 4 4 4 5 5 3 4 4 5 5 5 5 5 4 4 3 4
2 1 1 1 1 2 2 2 2 2 3 3 3 4 3 3 3 3 3 4 4 5 4 3 3 3 2 3 4 5 5 5 5 5 5 4 4 4
4 2 2 1 1 1 1 2 2 2 3 3 3 4 4 4 4 4 4 4 4 4 4 5 5 4 3 2 1 4 5 5 5 5 5 5 5 5
5 4 3 3 2 2 2 2 3 3 3 3 3 3 4 4 4 4 4 4 4 4 4 4 4 5 5 5 4 3 4 4 5 5 5 5 5 4
6 5 4 4 4 3 3 3 3 3 4 4 4 4 4 4 4 4 4 5 5 5 5 4 4 4 3 2 3 4 4 5 5 5 5 4 3 1
6 6 5 5 5 5 4 4 5 4 5 5 5 5 5 5 5 5 4 5 4 5 5 5 3 1 1 1 3 4 5 4 3 3 4 5 5 6
7 7 6 6 6 6 5 6 6 6 6 6 6 6 5 6 6 6 6 6 6 5 5 4 5 4 4 5 4 4 5 6 4 3 5 6 5 4
8 8 7 7 7 6 6 7 8 7 7 7 6 6 6 6 6 6 6 6 6 6 6 5 5 5 5 5 4 4 5 6 5 6 7 10 11 9
Wind_Direction
234 227 223 221 218 211 207 202 202 210 213 207 197 203 204 202 169 193 191 171 180 183 183 182 182 184 185 184 189 192 192 187 184 185 192 198 201 205
232 231 225 219 216 213 207 206 214 221 216 195 196 192 197 198 179 197 182 154 170 172 171 170 172 173 173 170 169 173 175 174 178 182 183 188 198 199
235 229 224 218 214 209 208 209 214 214 213 191 180 188 196 193 174 183 177 172 163 162 165 166 165 163 163 165 163 165 165 166 170 177 182 184 186 185
247 244 236 221 219 216 213 214 213 215 213 197 184 188 200 187 178 174 173 172 160 150 154 156 156 154 151 150 150 152 152 152 154 159 166 173 179 178
248 245 240 231 228 217 217 215 211 209 204 195 189 187 188 179 173 167 161 151 147 140 141 144 144 143 139 139 140 139 137 135 138 142 148 150 153 157
270 252 242 234 234 229 222 214 205 202 200 194 187 187 182 177 175 165 157 149 141 133 124 128 130 131 129 129 132 131 130 128 129 133 134 130 132 140
313 288 261 257 261 255 245 220 207 203 198 200 194 189 185 183 182 169 158 143 133 138 129 129 130 134 135 134 133 132 130 126 123 123 124 125 126 129
332 292 216 196 192 213 234 244 233 213 205 201 203 196 191 185 175 169 158 159 151 150 139 127 128 124 117 113 119 127 129 129 128 127 122 120 120 123
354 2 5 111 238 210 185 198 205 218 226 219 210 202 189 181 176 175 174 167 145 146 138 124 128 118 108 101 112 120 125 128 127 123 121 119 116 119
30 32 40 61 51 328 225 206 200 207 211 210 205 197 188 180 178 172 153 128 109 123 133 126 131 113 104 104 107 110 113 119 123 123 121 119 119 118
33 34 26 52 43 350 265 145 121 93 86 101 114 128 130 140 148 148 150 150 142 139 141 131 140 127 119 123 121 119 117 120 124 127 126 124 129 141
31 44 55 39 26 359 29 114 116 104 114 117 119 133 140 141 152 166 165 163 146 144 163 151 151 150 143 141 146 152 141 132 131 132 133 133 151 184
27 33 50 41 34 26 15 69 77 89 117 117 115 118 125 133 147 152 160 169 160 145 161 160 161 170 154 145 156 163 161 157 160 153 147 147 154 253
28 32 49 42 41 39 51 64 69 98 116 118 117 117 121 122 125 125 123 115 113 134 155 164 160 172 159 155 155 161 166 169 174 172 163 159 160 141
38 46 38 39 59 91 77 60 112 123 117 117 112 106 107 117 118 114 108 99 93 107 144 161 156 167 179 171 158 161 168 177 184 181 174 178 179 177
107 113 128 55 75 85 119 112 85 77 101 117 118 121 125 135 141 142 139 139 127 120 116 137 156 167 179 169 166 169 172 171 177 185 183 187 192 191
321 251 207 175 153 135 124 109 128 144 135 138 143 144 145 144 144 150 162 168 164 154 142 127 118 119 141 169 174 176 174 175 175 183 191 199 202 203
281 249 233 218 198 181 173 162 166 162 157 160 159 158 160 159 157 163 177 178 167 160 155 153 154 154 157 121 316 189 184 183 178 184 203 215 215 204
251 248 241 232 220 208 202 200 192 179 176 178 173 171 170 170 171 171 175 175 171 165 162 170 187 198 202 192 168 243 206 180 183 192 208 224 232 216
239 243 240 235 229 224 217 210 202 194 193 192 188 186 184 186 183 182 182 183 177 172 172 182 199 214 235 233 161 166 211 203 199 206 208 219 231 224
233 234 235 232 227 223 219 216 212 208 204 201 197 196 195 196 195 192 183 170 192 189 189 187 166 192 220 188 192 183 173 199 275 247 223 219 226 228
237 233 229 228 224 220 215 213 214 212 209 210 205 202 203 204 201 199 194 189 197 199 191 162 152 184 209 222 224 194 177 176 185 231 267 267 256 252
234 232 228 222 221 218 215 215 216 215 212 211 207 204 205 206 208 205 201 202 199 194 186 179 181 197 213 220 226 221 207 202 203 208 219 214 226 247